Ardmore, OK

7:43 PM CDT on June 24, 2018 (GMT -0500)
Ardmore Municipal

Weather History for KADM - August, 2017

Change the Weather History Date:

Sunday, August 13, 2017

  Actual Average Record
Temperature  
Mean Temperature 82 °F -  
Max Temperature 90 °F 92 °F 104 °F (2010)
Min Temperature 73 °F 70 °F 62 °F (2004)
Cooling Degree Days 16    
Growing Degree Days 32 (Base 50)    
Moisture  
Dew Point 74 °F    
Average Humidity 87    
Maximum Humidity 100    
Minimum Humidity 59    
Precipitation  
Precipitation 0.23 in - - ()
Sea Level Pressure  
Sea Level Pressure 29.89 in    
Wind  
Wind Speed 4 mph (NE)    
Max Wind Speed 10 mph    
Max Gust Speed -    
Visibility 8 miles    
Events Rain , Thunderstorm    
Averages and records for this station are not official NWS values.
T = Trace of Precipitation, MM = Missing Value Source: NWS Daily Summary

Daily Weather History Graph

Daily Weather History Graph

Search for Another Location

Airport or City:

Astronomy

Aug. 13, 2017 Rise Set
Actual Time 6:47 AM CDT 8:17 PM CDT
Civil Twilight 6:21 AM CDT 8:43 PM CDT
Nautical Twilight 5:49 AM CDT 9:15 PM CDT
Astronomical Twilight 5:15 AM CDT 9:49 PM CDT
Moon No Moon Rise 12:33 PM CDT (8/13)
Length of Visible Light 14h 22m
Length of Day
13h 29m
Waning Gibbous, 65% of the Moon is Illuminated
Aug 13
Waning Gibbous
Aug 14
Last Quarter
Aug 21
New
Aug 29
First Quarter
Sep 6
Full

Hourly Weather History & Observations

Time (CDT) Temp. Heat Index Dew Point Humidity Pressure Visibility Wind Dir Wind Speed Gust Speed Precip Events Conditions
12:15 AM 74.3 °F - 73.4 °F 97% 29.94 in 3.0 mi SE 9.2 mph - 0.02 in Rain Rain
12:35 AM 74.3 °F - 73.4 °F 97% 29.94 in 4.0 mi SSE 10.4 mph - 0.02 in Thunderstorm Unknown
12:55 AM 74.3 °F - 73.4 °F 97% 29.95 in 7.0 mi SSE 6.9 mph - 0.02 in   Overcast
1:15 AM 74.3 °F - 73.4 °F 97% 29.95 in 3.0 mi South 3.5 mph - N/A Rain Rain
1:35 AM 74.3 °F - 73.4 °F 97% 29.94 in 3.0 mi ESE 6.9 mph - 0.03 in Rain , Thunderstorm Rain
1:55 AM 74.3 °F - 73.4 °F 97% 29.94 in 4.0 mi Calm Calm - 0.04 in Thunderstorm Unknown
2:15 AM 74.3 °F - 73.6 °F 98% 29.92 in 5.0 mi Calm Calm - N/A   Overcast
2:35 AM 74.3 °F - 73.8 °F 98% 29.93 in 4.0 mi NNW 3.5 mph - 0.05 in Rain Heavy Rain
2:55 AM 74.3 °F - 73.8 °F 98% 29.92 in 2.5 mi North 4.6 mph - 0.16 in Rain Light Rain
3:15 AM 74.3 °F - 73.8 °F 98% 29.92 in 7.0 mi NE 3.5 mph - N/A   Light Drizzle
3:35 AM 74.7 °F - 74.1 °F 98% 29.92 in 10.0 mi Calm Calm - N/A   Overcast
3:55 AM 74.8 °F - 74.3 °F 98% 29.91 in 7.0 mi Calm Calm - N/A   Overcast
4:15 AM 74.7 °F - 74.3 °F 99% 29.91 in 10.0 mi Calm Calm - 0.01 in   Overcast
4:35 AM 74.7 °F - 74.3 °F 99% 29.90 in 10.0 mi Calm Calm - 0.01 in   Overcast
4:55 AM 74.7 °F - 74.3 °F 99% 29.90 in 7.0 mi Calm Calm - 0.01 in   Overcast
5:15 AM 74.7 °F - 74.1 °F 98% 29.90 in 7.0 mi NNW 4.6 mph - N/A   Overcast
5:35 AM 74.5 °F - 73.9 °F 98% 29.90 in 7.0 mi NNW 5.8 mph - N/A   Overcast
5:55 AM 74.3 °F - 73.8 °F 98% 29.91 in 7.0 mi North 6.9 mph - N/A Thunderstorm Overcast
6:15 AM 74.3 °F - 73.8 °F 98% 29.90 in 7.0 mi North 6.9 mph - N/A   Overcast
6:55 AM 73.4 °F - 73.4 °F 100% 29.90 in 5.0 mi NNW 6.9 mph - N/A   Overcast
7:55 AM 73.4 °F - 73.4 °F 100% 29.91 in 5.0 mi NNW 6.9 mph - N/A   Overcast
8:55 AM 75.2 °F - 73.4 °F 94% 29.92 in 7.0 mi Calm Calm - N/A   Overcast
9:55 AM 75.2 °F - 73.4 °F 94% 29.94 in 7.0 mi NNW 4.6 mph - N/A   Overcast
10:55 AM 75.2 °F - 75.2 °F 100% 29.95 in 7.0 mi NNE 4.6 mph - N/A   Overcast
11:55 AM 77.0 °F - 75.2 °F 94% 29.95 in 7.0 mi Calm Calm - N/A   Overcast
12:55 PM 80.6 °F 86.2 °F 75.2 °F 84% 29.93 in 10.0 mi Calm Calm - N/A   Overcast
1:55 PM 84.2 °F 92.3 °F 75.2 °F 74% 29.91 in 10.0 mi WNW 4.6 mph - N/A   Mostly Cloudy
2:55 PM 86.0 °F 93.4 °F 73.4 °F 66% 29.89 in 10.0 mi Calm Calm - N/A   Mostly Cloudy
3:05 PM 86.0 °F 93.4 °F 73.4 °F 66% 29.89 in 10.0 mi SE 3.5 mph - N/A   Scattered Clouds
3:55 PM 87.8 °F 95.6 °F 73.4 °F 62% 29.87 in 10.0 mi North 4.6 mph - N/A   Mostly Cloudy
4:55 PM 89.1 °F 97.5 °F 73.8 °F 60% 29.87 in 10.0 mi Calm Calm - N/A   Scattered Clouds
5:15 PM 90.0 °F 99.0 °F 74.1 °F 59% 29.86 in 10.0 mi East 3.5 mph - N/A   Scattered Clouds
5:35 PM 89.2 °F 97.9 °F 73.8 °F 60% 29.85 in 10.0 mi Calm Calm - N/A   Scattered Clouds
5:55 PM 88.9 °F 98.1 °F 74.1 °F 62% 29.84 in 10.0 mi Calm Calm - N/A   Clear
6:15 PM 88.9 °F 97.6 °F 73.9 °F 61% 29.83 in 10.0 mi Calm Calm - N/A   Clear
6:35 PM 88.9 °F 96.6 °F 73.0 °F 59% 29.82 in 10.0 mi Calm Calm - N/A   Clear
6:55 PM 89.1 °F 97.5 °F 73.4 °F 60% 29.82 in 10.0 mi SE 3.5 mph - N/A   Clear
7:15 PM 88.3 °F 95.9 °F 73.0 °F 60% 29.82 in 7.0 mi Calm Calm - N/A   Clear
7:35 PM 88.0 °F 96.5 °F 74.1 °F 63% 29.82 in 10.0 mi Calm Calm - N/A   Clear
7:55 PM 86.7 °F 96.4 °F 75.6 °F 69% 29.82 in 5.0 mi Calm Calm - N/A   Haze
8:15 PM 84.2 °F 94.1 °F 77.2 °F 79% 29.83 in 10.0 mi Calm Calm - N/A   Clear
8:35 PM 81.9 °F 89.7 °F 77.0 °F 85% 29.83 in 10.0 mi Calm Calm - N/A   Clear
8:55 PM 78.3 °F - 75.7 °F 92% 29.84 in 7.0 mi Calm Calm - N/A   Clear
9:15 PM 78.4 °F - 76.5 °F 94% 29.84 in 10.0 mi Calm Calm - N/A   Clear
9:35 PM 77.5 °F - 76.6 °F 97% 29.85 in 10.0 mi Calm Calm - N/A   Clear
9:55 PM 79.2 °F - 76.5 °F 91% 29.85 in 10.0 mi SE 4.6 mph - N/A   Mostly Cloudy
10:15 PM 79.0 °F - 76.1 °F 91% 29.86 in 7.0 mi Calm Calm - N/A   Scattered Clouds
10:35 PM 77.0 °F - 75.4 °F 95% 29.86 in 10.0 mi Calm Calm - N/A   Scattered Clouds
10:55 PM 77.0 °F - 75.2 °F 94% 29.86 in 10.0 mi Calm Calm - N/A   Scattered Clouds
11:15 PM 77.0 °F - 75.6 °F 95% 29.84 in 10.0 mi Calm Calm - N/A   Scattered Clouds
11:35 PM 77.5 °F - 76.1 °F 95% 29.84 in 10.0 mi ESE 3.5 mph - N/A   Mostly Cloudy
11:55 PM 78.6 °F - 76.3 °F 92% 29.85 in 10.0 mi SE 3.5 mph - N/A   Scattered Clouds